Regional Weather Roundup
Issued by NWS

Home | Current Version | Previous Version | Text Only | Print | Product List | Glossary Off
Versions: 1 2 3 4 5 6 7 8 9 10 11 12 13 14 15 16 17 18 19 20 21 22 23 24 25 26 27 28 29 30 31 32 33 34 35 36 37 38 39 40 41 42 43 44 45 46 47 48 49 50

000
ASUS44 KMEG 241200
RWRTN
TENNESSEE HOURLY STATE WEATHER ROUNDUP
NATIONAL WEATHER SERVICE MEMPHIS TN
700 AM CDT SUN MAY 24 2015

TNZ002-004-019-021-049-052-054-088>092-241300-
WEST TENNESSEE

CITY           SKY/WX    TMP DP  RH WIND       PRES   REMARKS
MEMPHIS INTL   MOSUNNY   72  60  66 SE9       30.13S
NWS MEMPHIS      N/A     70 N/A N/A MISG        N/A
JACKSON        MOSUNNY   70  56  61 S9        30.17S
DYERSBURG      MOSUNNY   70  48  46 SE10G16   30.16R
PARIS          SUNNY     63  55  77 SE9       30.19S
LEXINGTON      SUNNY     66  55  68 SE5       30.19S
$$

TNZ008-025-027-028-033-062-065-066-241300-
NORTH MIDDLE TENNESSEE

CITY           SKY/WX    TMP DP  RH WIND       PRES   REMARKS
NASHVILLE      CLOUDY    66  54  65 SE6       30.26R
CLARKSVILLE    MOSUNNY   65  55  70 S6        30.22R
COOKEVILLE     SUNNY     64  54  68 S6        30.29F
CROSSVILLE     SUNNY     61  52  72 VRB3      30.36R
$$

TNZ061-075-076-078-094-096-097-241300-
SOUTH MIDDLE TENNESSEE

CITY           SKY/WX    TMP DP  RH WIND       PRES   REMARKS
FAYETTEVILLE   SUNNY    N/A N/A N/A MISG      30.28S
TULLAHOMA      SUNNY     64  54  68 SE12      30.30R
WINCHESTER     SUNNY     66  55  68 SE9       30.31R
MCMINNVILLE    SUNNY     70  55  60 SE3       30.30R
COLUMBIA       SUNNY     66  54  63 S5        30.23S
SHELBYVILLE    SUNNY     66  54  63 SE6       30.29R
$$

TNZ017-018-042-046-047-241300-
NORTHEAST TENNESSEE

CITY           SKY/WX    TMP DP  RH WIND       PRES   REMARKS
TRI CITIES     PTSUNNY   57  50  77 CALM      30.40R
ELIZABETHTON   SUNNY     57  46  67 CALM      30.41R
$$

TNZ012-013-036-069-073-074-241300-
CENTRAL EAST TENNESSEE

CITY           SKY/WX    TMP DP  RH WIND       PRES   REMARKS
KNOXVILLE      PTSUNNY   58  55  90 E6        30.35R
OAK RIDGE      MOSUNNY   59  54  83 CALM      30.38R
GATLINBURG     SUNNY     55  52  88 CALM      30.36R
$$

TNZ083-085-099-241300-
SOUTHEAST TENNESSEE

CITY           SKY/WX    TMP DP  RH WIND       PRES   REMARKS
CHATTANOOGA    PTSUNNY   62  56  80 CALM      30.36R
$$

SKY/WX REPORTED AS FAIR MEANS FEW OR NO CLOUDS BELOW
12 THOUSAND FEET.




USA.gov is the U.S. government's official web portal to all federal, state and local government web resources and services.